Time,TemperatureF,DewpointF,PressureIn,WindDirection,WindDirectionDegrees,WindSpeedMPH,WindSpeedGustMPH,Humidity,HourlyPrecipIn,Conditions,Clouds,dailyrainin,SoftwareType,DateUTC
2013-10-06 00:01:00,65.4,63.0,30.05,SSE,149,0.0,1.0,90,0.00,,,0.00,weatherlink.com 1.10,2013-10-06 04:01:00,
2013-10-06 00:16:00,64.7,62.0,30.04,SSE,149,0.0,0.0,91,0.00,,,0.00,weatherlink.com 1.10,2013-10-06 04:16:00,
2013-10-06 00:31:00,63.8,62.0,30.04,SSE,149,0.0,1.0,93,0.00,,,0.00,weatherlink.com 1.10,2013-10-06 04:31:00,
2013-10-06 00:46:00,63.4,61.0,30.04,SSE,150,0.0,1.0,93,0.00,,,0.00,weatherlink.com 1.10,2013-10-06 04:46:00,
2013-10-06 01:01:00,63.2,61.0,30.03,SSE,150,0.0,1.0,93,0.00,,,0.00,weatherlink.com 1.10,2013-10-06 05:01:00,
2013-10-06 01:16:00,62.8,61.0,30.03,SSE,151,0.0,1.0,94,0.00,,,0.00,weatherlink.com 1.10,2013-10-06 05:16:00,
2013-10-06 01:31:00,62.4,61.0,30.03,SSE,150,0.0,0.0,94,0.00,,,0.00,weatherlink.com 1.10,2013-10-06 05:31:00,
2013-10-06 01:46:00,62.3,61.0,30.03,SSE,151,0.0,0.0,95,0.00,,,0.00,weatherlink.com 1.10,2013-10-06 05:46:00,
2013-10-06 02:01:00,62.0,61.0,30.03,SSE,150,0.0,0.0,95,0.00,,,0.00,weatherlink.com 1.10,2013-10-06 06:01:00,
2013-10-06 02:16:00,61.8,60.0,30.03,SSE,150,0.0,0.0,95,0.00,,,0.00,weatherlink.com 1.10,2013-10-06 06:16:00,
2013-10-06 02:32:00,61.8,60.0,30.03,SSE,150,0.0,0.0,95,0.00,,,0.00,weatherlink.com 1.10,2013-10-06 06:32:00,
2013-10-06 02:47:00,61.8,60.0,30.02,SSE,151,0.0,0.0,95,0.00,,,0.00,weatherlink.com 1.10,2013-10-06 06:47:00,
2013-10-06 03:02:00,61.6,60.0,30.02,SSE,150,0.0,0.0,95,0.00,,,0.00,weatherlink.com 1.10,2013-10-06 07:02:00,
2013-10-06 03:17:00,61.5,60.0,30.01,SSE,150,0.0,0.0,95,0.00,,,0.00,weatherlink.com 1.10,2013-10-06 07:17:00,
2013-10-06 03:32:00,61.4,60.0,30.01,SSE,151,0.0,0.0,95,0.00,,,0.00,weatherlink.com 1.10,2013-10-06 07:32:00,
2013-10-06 03:47:00,61.3,60.0,30.01,SSE,151,0.0,0.0,95,0.00,,,0.00,weatherlink.com 1.10,2013-10-06 07:47:00,
2013-10-06 04:02:00,61.4,60.0,30.01,SSE,150,0.0,0.0,95,0.00,,,0.00,weatherlink.com 1.10,2013-10-06 08:02:00,
2013-10-06 04:17:00,61.3,60.0,30.00,SSE,150,0.0,0.0,95,0.00,,,0.00,weatherlink.com 1.10,2013-10-06 08:17:00,
2013-10-06 04:32:00,60.9,60.0,30.00,SSE,150,0.0,0.0,95,0.00,,,0.00,weatherlink.com 1.10,2013-10-06 08:32:00,
2013-10-06 04:47:00,60.7,60.0,30.00,SSE,150,0.0,0.0,96,0.00,,,0.00,weatherlink.com 1.10,2013-10-06 08:47:00,
2013-10-06 05:02:00,60.8,60.0,30.00,SSE,151,0.0,0.0,96,0.00,,,0.00,weatherlink.com 1.10,2013-10-06 09:02:00,
2013-10-06 05:17:00,60.8,60.0,30.00,SSE,150,0.0,0.0,96,0.00,,,0.00,weatherlink.com 1.10,2013-10-06 09:17:00,
2013-10-06 05:32:00,60.7,60.0,30.00,SSE,150,0.0,0.0,96,0.00,,,0.00,weatherlink.com 1.10,2013-10-06 09:32:00,
2013-10-06 05:47:00,60.6,60.0,30.00,SSE,151,0.0,0.0,96,0.00,,,0.00,weatherlink.com 1.10,2013-10-06 09:47:00,
2013-10-06 06:02:00,60.3,59.0,30.01,SSE,149,0.0,0.0,96,0.00,,,0.00,weatherlink.com 1.10,2013-10-06 10:02:00,
2013-10-06 06:17:00,60.2,59.0,30.01,SSE,150,0.0,0.0,96,0.00,,,0.00,weatherlink.com 1.10,2013-10-06 10:17:00,
2013-10-06 06:32:00,60.3,60.0,30.01,SSE,150,0.0,0.0,97,0.00,,,0.00,weatherlink.com 1.10,2013-10-06 10:32:00,
2013-10-06 06:47:00,60.4,60.0,30.01,SSE,151,0.0,1.0,97,0.00,,,0.00,weatherlink.com 1.10,2013-10-06 10:47:00,
2013-10-06 07:02:00,60.3,60.0,30.01,SSE,150,0.0,1.0,97,0.00,,,0.00,weatherlink.com 1.10,2013-10-06 11:02:00,
2013-10-06 07:17:00,60.1,59.0,30.02,SSE,150,0.0,1.0,96,0.00,,,0.00,weatherlink.com 1.10,2013-10-06 11:17:00,
2013-10-06 07:28:00,60.2,59.3,30.01,SSE,151,0.0,3.0,97,0.00,,,0.00,Wunderground v.1.15,2013-10-06 11:28:00,
2013-10-06 07:34:00,60.1,59.0,30.01,SSE,151,0.0,3.0,96,0.00,,,0.00,Wunderground v.1.15,2013-10-06 11:34:00,
2013-10-06 07:39:00,59.9,58.8,30.02,SSE,151,0.0,3.0,96,0.00,,,0.00,Wunderground v.1.15,2013-10-06 11:39:00,
2013-10-06 07:44:00,59.9,58.8,30.02,SSE,151,0.0,3.0,96,0.00,,,0.00,Wunderground v.1.15,2013-10-06 11:44:00,
2013-10-06 07:50:00,60.0,59.1,30.01,SSE,151,0.0,3.0,97,0.00,,,0.00,Wunderground v.1.15,2013-10-06 11:50:00,
2013-10-06 07:55:00,60.1,59.2,30.01,SSE,151,0.0,3.0,97,0.00,,,0.00,Wunderground v.1.15,2013-10-06 11:55:00,
2013-10-06 08:01:00,60.0,59.1,30.01,SSE,150,0.0,0.0,97,0.00,,,0.00,Wunderground v.1.15,2013-10-06 12:01:00,
2013-10-06 08:06:00,59.9,59.0,30.01,SSE,151,0.0,0.0,97,0.00,,,0.00,Wunderground v.1.15,2013-10-06 12:06:00,
2013-10-06 08:12:00,60.0,59.1,30.01,SSE,150,0.0,0.0,97,0.00,,,0.00,Wunderground v.1.15,2013-10-06 12:12:00,
2013-10-06 08:17:00,60.2,59.0,30.01,SSE,151,0.0,1.0,97,0.00,,,0.00,weatherlink.com 1.10,2013-10-06 12:17:00,
2013-10-06 08:23:00,60.4,59.5,30.01,SSE,150,0.0,0.0,97,0.00,,,0.00,Wunderground v.1.15,2013-10-06 12:23:00,
2013-10-06 08:29:00,60.5,59.6,30.01,SSE,151,0.0,0.0,97,0.00,,,0.00,Wunderground v.1.15,2013-10-06 12:29:00,
2013-10-06 08:34:00,60.4,59.5,30.01,SSE,150,0.0,0.0,97,0.00,,,0.00,Wunderground v.1.15,2013-10-06 12:34:00,
2013-10-06 08:40:00,60.4,59.5,30.01,SSE,151,0.0,1.0,97,0.00,,,0.00,Wunderground v.1.15,2013-10-06 12:40:00,
2013-10-06 08:45:00,60.5,59.6,30.01,SSE,151,0.0,0.0,97,0.00,,,0.00,Wunderground v.1.15,2013-10-06 12:45:00,
2013-10-06 08:51:00,60.8,59.9,30.01,SSE,149,0.0,1.0,97,0.00,,,0.00,Wunderground v.1.15,2013-10-06 12:51:00,
2013-10-06 08:56:00,60.5,59.6,30.01,SSE,150,0.0,1.0,97,0.00,,,0.00,Wunderground v.1.15,2013-10-06 12:56:00,
2013-10-06 09:02:00,60.5,59.6,30.02,SSE,151,0.0,0.0,97,0.00,,,0.00,Wunderground v.1.15,2013-10-06 13:02:00,
2013-10-06 09:07:00,60.7,59.8,30.02,SSE,149,0.0,0.0,97,0.00,,,0.00,Wunderground v.1.15,2013-10-06 13:07:00,
2013-10-06 09:12:00,60.9,60.0,30.02,SSE,149,0.0,0.0,97,0.00,,,0.00,Wunderground v.1.15,2013-10-06 13:12:00,
2013-10-06 09:18:00,61.1,60.0,30.02,SSE,149,0.0,0.0,97,0.00,,,0.00,weatherlink.com 1.10,2013-10-06 13:18:00,
2013-10-06 09:23:00,61.2,60.1,30.02,SSE,150,0.0,0.0,96,0.00,,,0.00,Wunderground v.1.15,2013-10-06 13:23:00,
2013-10-06 09:29:00,61.4,60.2,30.01,SSE,149,0.0,0.0,96,0.00,,,0.00,Wunderground v.1.15,2013-10-06 13:29:00,
2013-10-06 09:34:00,61.7,60.5,30.02,ENE,68,0.0,1.0,96,0.00,,,0.00,Wunderground v.1.15,2013-10-06 13:34:00,
2013-10-06 09:40:00,62.3,60.8,30.02,ENE,68,0.0,0.0,95,0.00,,,0.00,Wunderground v.1.15,2013-10-06 13:40:00,
2013-10-06 09:46:00,62.7,61.2,30.02,ENE,68,0.0,0.0,95,0.00,,,0.00,Wunderground v.1.15,2013-10-06 13:46:00,
2013-10-06 09:51:00,63.0,61.2,30.02,ENE,68,0.0,1.0,94,0.00,,,0.00,Wunderground v.1.15,2013-10-06 13:51:00,
2013-10-06 09:57:00,63.3,61.5,30.02,ENE,68,0.0,1.0,94,0.00,,,0.00,Wunderground v.1.15,2013-10-06 13:57:00,
2013-10-06 10:02:00,63.7,61.9,30.01,ENE,68,0.0,0.0,94,0.00,,,0.00,Wunderground v.1.15,2013-10-06 14:02:00,
2013-10-06 10:07:00,64.1,62.3,30.01,ENE,68,0.0,0.0,94,0.00,,,0.00,Wunderground v.1.15,2013-10-06 14:07:00,
2013-10-06 10:13:00,64.7,62.6,30.01,ENE,68,0.0,0.0,93,0.00,,,0.00,Wunderground v.1.15,2013-10-06 14:13:00,
2013-10-06 10:18:00,65.1,63.0,30.01,ENE,68,0.0,1.0,93,0.00,,,0.00,weatherlink.com 1.10,2013-10-06 14:18:00,
2013-10-06 10:24:00,65.3,62.9,30.01,ENE,68,0.0,1.0,92,0.00,,,0.00,Wunderground v.1.15,2013-10-06 14:24:00,
2013-10-06 10:29:00,65.6,62.9,30.00,ENE,68,0.0,1.0,91,0.00,,,0.00,Wunderground v.1.15,2013-10-06 14:29:00,
2013-10-06 10:35:00,66.1,63.4,30.00,ENE,68,0.0,1.0,91,0.00,,,0.00,Wunderground v.1.15,2013-10-06 14:35:00,
2013-10-06 10:41:00,66.7,64.0,30.00,NNW,347,0.0,1.0,91,0.00,,,0.00,Wunderground v.1.15,2013-10-06 14:41:00,
2013-10-06 10:46:00,67.1,64.1,30.00,East,87,0.0,1.0,90,0.00,,,0.00,Wunderground v.1.15,2013-10-06 14:46:00,
2013-10-06 10:51:00,67.7,64.3,29.99,SE,142,0.0,1.0,89,0.00,,,0.00,Wunderground v.1.15,2013-10-06 14:51:00,
2013-10-06 10:57:00,68.9,62.8,29.99,West,262,0.0,1.0,81,0.00,,,0.00,Wunderground v.1.15,2013-10-06 14:57:00,
2013-10-06 11:02:00,69.5,63.1,29.99,SE,146,1.0,4.0,80,0.00,,,0.00,Wunderground v.1.15,2013-10-06 15:02:00,
2013-10-06 11:08:00,70.0,63.2,29.99,SSW,200,1.0,4.0,79,0.00,,,0.00,Wunderground v.1.15,2013-10-06 15:08:00,
2013-10-06 11:13:00,70.6,63.8,29.99,SSW,204,1.0,2.0,79,0.00,,,0.00,Wunderground v.1.15,2013-10-06 15:13:00,
2013-10-06 11:19:00,71.0,64.0,29.98,WSW,238,3.0,4.0,78,0.00,,,0.00,weatherlink.com 1.10,2013-10-06 15:19:00,
2013-10-06 11:24:00,71.5,64.6,29.98,NW,312,1.0,1.0,79,0.00,,,0.00,Wunderground v.1.15,2013-10-06 15:24:00,
2013-10-06 11:30:00,71.8,64.6,29.98,North,8,1.0,1.0,78,0.00,,,0.00,Wunderground v.1.15,2013-10-06 15:30:00,
2013-10-06 11:36:00,71.8,64.6,29.98,WNW,302,1.0,2.0,78,0.00,,,0.00,Wunderground v.1.15,2013-10-06 15:36:00,
2013-10-06 11:42:00,72.4,65.5,29.98,NW,304,1.0,2.0,79,0.00,,,0.00,Wunderground v.1.15,2013-10-06 15:42:00,
2013-10-06 11:48:00,73.2,65.6,29.98,NW,304,0.0,2.0,77,0.00,,,0.00,Wunderground v.1.15,2013-10-06 15:48:00,
2013-10-06 11:53:00,72.8,65.5,29.98,NNE,33,0.0,2.0,78,0.00,,,0.00,Wunderground v.1.15,2013-10-06 15:53:00,
2013-10-06 11:59:00,73.1,66.2,29.97,NNE,29,1.0,2.0,79,0.00,,,0.00,Wunderground v.1.15,2013-10-06 15:59:00,
2013-10-06 12:04:00,73.5,66.0,29.97,West,274,0.0,1.0,78,0.00,,,0.00,weatherlink.com 1.10,2013-10-06 16:04:00,
2013-10-06 12:10:00,73.7,66.8,29.97,NNW,335,0.0,0.0,79,0.00,,,0.00,Wunderground v.1.15,2013-10-06 16:10:00,
2013-10-06 12:16:00,73.9,66.2,29.97,NNE,26,0.0,1.0,77,0.00,,,0.00,Wunderground v.1.15,2013-10-06 16:16:00,
2013-10-06 12:22:00,74.4,66.0,29.97,NW,326,0.0,2.0,75,0.00,,,0.00,Wunderground v.1.15,2013-10-06 16:22:00,
2013-10-06 12:27:00,74.5,66.8,29.96,NNW,330,0.0,2.0,77,0.00,,,0.00,Wunderground v.1.15,2013-10-06 16:27:00,
2013-10-06 12:33:00,74.1,65.3,29.96,WNW,299,1.0,1.0,74,0.00,,,0.00,Wunderground v.1.15,2013-10-06 16:33:00,
2013-10-06 12:38:00,74.0,64.4,29.96,West,276,1.0,2.0,72,0.00,,,0.00,Wunderground v.1.15,2013-10-06 16:38:00,
2013-10-06 12:44:00,74.2,63.4,29.95,South,185,1.0,2.0,69,0.00,,,0.00,Wunderground v.1.15,2013-10-06 16:44:00,
2013-10-06 12:50:00,74.5,63.7,29.95,West,271,1.0,2.0,69,0.00,,,0.00,Wunderground v.1.15,2013-10-06 16:50:00,
2013-10-06 12:56:00,73.9,64.7,29.95,NW,305,1.0,2.0,73,0.00,,,0.00,Wunderground v.1.15,2013-10-06 16:56:00,
2013-10-06 13:01:00,73.8,64.6,29.95,NNW,330,1.0,2.0,73,0.00,,,0.00,Wunderground v.1.15,2013-10-06 17:01:00,
2013-10-06 13:06:00,73.8,64.6,29.95,NW,310,1.0,2.0,73,0.00,,,0.00,Wunderground v.1.15,2013-10-06 17:06:00,
2013-10-06 13:12:00,73.6,64.8,29.94,ENE,60,1.0,3.0,74,0.00,,,0.00,Wunderground v.1.15,2013-10-06 17:12:00,
2013-10-06 13:18:00,73.6,62.4,29.94,NNE,16,1.0,3.0,68,0.00,,,0.00,Wunderground v.1.15,2013-10-06 17:18:00,
2013-10-06 13:23:00,73.7,64.5,29.94,NW,316,1.0,3.0,73,0.00,,,0.00,Wunderground v.1.15,2013-10-06 17:23:00,
2013-10-06 13:29:00,74.2,62.5,29.94,NNW,338,2.0,3.0,67,0.00,,,0.00,Wunderground v.1.15,2013-10-06 17:29:00,
2013-10-06 13:35:00,73.9,62.0,29.93,NNW,333,5.0,5.0,67,0.00,,,0.00,weatherlink.com 1.10,2013-10-06 17:35:00,
2013-10-06 13:41:00,73.9,63.5,29.93,NNW,333,2.0,2.0,70,0.00,,,0.00,Wunderground v.1.15,2013-10-06 17:41:00,
2013-10-06 13:46:00,73.5,62.7,29.93,ENE,71,1.0,4.0,69,0.00,,,0.00,Wunderground v.1.15,2013-10-06 17:46:00,
2013-10-06 13:52:00,74.0,63.6,29.93,West,259,1.0,1.0,70,0.00,,,0.00,Wunderground v.1.15,2013-10-06 17:52:00,
2013-10-06 13:57:00,73.7,63.3,29.92,ENE,67,1.0,1.0,70,0.00,,,0.00,Wunderground v.1.15,2013-10-06 17:57:00,
2013-10-06 14:02:00,73.4,63.4,29.93,NW,322,1.0,1.0,71,0.00,,,0.00,Wunderground v.1.15,2013-10-06 18:02:00,
2013-10-06 14:08:00,73.2,62.0,29.92,West,277,1.0,2.0,68,0.00,,,0.00,Wunderground v.1.15,2013-10-06 18:08:00,
2013-10-06 14:13:00,73.1,61.1,29.92,ENE,58,1.0,6.0,66,0.00,,,0.00,Wunderground v.1.15,2013-10-06 18:13:00,
2013-10-06 14:19:00,73.4,61.8,29.92,SSW,203,2.0,6.0,67,0.00,,,0.00,Wunderground v.1.15,2013-10-06 18:19:00,
2013-10-06 14:24:00,73.3,62.1,29.92,West,279,2.0,2.0,68,0.00,,,0.00,Wunderground v.1.15,2013-10-06 18:24:00,
2013-10-06 14:30:00,73.0,62.6,29.92,West,278,1.0,4.0,70,0.00,,,0.00,Wunderground v.1.15,2013-10-06 18:30:00,
2013-10-06 14:50:00,73.1,62.0,29.91,WNW,287,0.0,4.0,69,0.00,,,0.00,weatherlink.com 1.10,2013-10-06 18:50:00,
2013-10-06 15:04:00,72.9,60.0,29.90,ENE,57,2.0,4.0,65,0.00,,,0.00,weatherlink.com 1.10,2013-10-06 19:04:00,
2013-10-06 15:20:00,73.0,60.0,29.90,North,4,2.0,6.0,65,0.00,,,0.00,weatherlink.com 1.10,2013-10-06 19:20:00,
2013-10-06 15:35:00,73.3,61.0,29.89,West,274,2.0,4.0,66,0.00,,,0.00,weatherlink.com 1.10,2013-10-06 19:35:00,
2013-10-06 15:51:00,72.4,61.0,29.89,WSW,240,1.0,2.0,68,0.00,,,0.00,weatherlink.com 1.10,2013-10-06 19:51:00,
2013-10-06 16:06:00,71.8,62.0,29.89,SSW,203,1.0,2.0,72,0.00,,,0.00,weatherlink.com 1.10,2013-10-06 20:06:00,
2013-10-06 16:20:00,71.4,62.0,29.89,West,278,0.0,1.0,72,0.00,,,0.00,weatherlink.com 1.10,2013-10-06 20:20:00,
2013-10-06 16:36:00,71.2,63.0,29.88,WNW,284,0.0,2.0,75,0.00,,,0.00,weatherlink.com 1.10,2013-10-06 20:36:00,
2013-10-06 16:51:00,71.6,63.0,29.88,West,280,1.0,3.0,73,0.00,,,0.00,weatherlink.com 1.10,2013-10-06 20:51:00,
2013-10-06 17:06:00,71.0,63.0,29.88,NNW,345,2.0,5.0,75,0.00,,,0.00,weatherlink.com 1.10,2013-10-06 21:06:00,
2013-10-06 17:21:00,70.7,62.0,29.88,ENE,74,0.0,2.0,73,0.00,,,0.00,weatherlink.com 1.10,2013-10-06 21:21:00,
2013-10-06 17:36:00,70.4,62.0,29.88,SW,228,0.0,3.0,74,0.00,,,0.00,weatherlink.com 1.10,2013-10-06 21:36:00,
2013-10-06 17:51:00,70.0,62.0,29.88,ESE,117,0.0,2.0,75,0.00,,,0.00,weatherlink.com 1.10,2013-10-06 21:51:00,
2013-10-06 18:06:00,69.7,62.0,29.88,NW,308,0.0,2.0,76,0.00,,,0.00,weatherlink.com 1.10,2013-10-06 22:06:00,
2013-10-06 18:21:00,68.7,62.0,29.88,West,270,0.0,2.0,78,0.00,,,0.00,weatherlink.com 1.10,2013-10-06 22:21:00,
2013-10-06 18:37:00,68.2,62.0,29.88,ENE,61,0.0,1.0,80,0.00,,,0.00,weatherlink.com 1.10,2013-10-06 22:37:00,
2013-10-06 18:51:00,67.3,62.0,29.88,WSW,243,0.0,1.0,82,0.00,,,0.00,weatherlink.com 1.10,2013-10-06 22:51:00,
2013-10-06 19:06:00,67.5,62.0,29.88,SSW,205,1.0,2.0,82,0.00,,,0.00,weatherlink.com 1.10,2013-10-06 23:06:00,
2013-10-06 19:22:00,67.0,62.0,29.88,SSW,194,1.0,1.0,83,0.00,,,0.00,weatherlink.com 1.10,2013-10-06 23:22:00,
2013-10-06 19:37:00,66.9,62.0,29.88,SE,143,0.0,0.0,83,0.00,,,0.00,weatherlink.com 1.10,2013-10-06 23:37:00,
2013-10-06 19:52:00,67.1,62.0,29.87,NNW,345,0.0,3.0,83,0.00,,,0.00,weatherlink.com 1.10,2013-10-06 23:52:00,
2013-10-06 20:21:00,66.9,62.0,29.88,NNW,334,1.0,2.0,84,0.00,,,0.00,weatherlink.com 1.10,2013-10-07 00:21:00,
2013-10-06 20:38:00,66.8,62.0,29.88,NW,324,0.0,1.0,84,0.00,,,0.00,weatherlink.com 1.10,2013-10-07 00:38:00,
2013-10-06 20:53:00,66.8,62.0,29.87,NW,326,0.0,2.0,85,0.00,,,0.00,weatherlink.com 1.10,2013-10-07 00:53:00,
2013-10-06 21:08:00,66.9,62.0,29.87,NW,326,1.0,2.0,85,0.00,,,0.00,weatherlink.com 1.10,2013-10-07 01:08:00,
2013-10-06 21:23:00,66.3,62.0,29.87,SSW,207,0.0,1.0,86,0.00,,,0.00,weatherlink.com 1.10,2013-10-07 01:23:00,
2013-10-06 21:37:00,66.7,62.0,29.88,SSW,208,0.0,2.0,85,0.00,,,0.00,weatherlink.com 1.10,2013-10-07 01:37:00,
2013-10-06 21:52:00,67.2,62.0,29.88,NNW,328,0.0,1.0,84,0.00,,,0.00,weatherlink.com 1.10,2013-10-07 01:52:00,
2013-10-06 22:08:00,67.3,62.0,29.89,SW,230,0.0,2.0,84,0.00,,,0.00,weatherlink.com 1.10,2013-10-07 02:08:00,
2013-10-06 22:23:00,68.0,62.0,29.89,SE,132,0.0,4.0,81,0.00,,,0.00,weatherlink.com 1.10,2013-10-07 02:23:00,
2013-10-06 22:38:00,68.0,62.0,29.88,SSW,203,0.0,2.0,81,0.00,,,0.00,weatherlink.com 1.10,2013-10-07 02:38:00,
2013-10-06 22:53:00,68.1,62.0,29.88,South,187,0.0,2.0,81,0.00,,,0.00,weatherlink.com 1.10,2013-10-07 02:53:00,
2013-10-06 23:08:00,68.2,62.0,29.87,SSW,198,0.0,3.0,80,0.00,,,0.00,weatherlink.com 1.10,2013-10-07 03:08:00,
2013-10-06 23:24:00,68.2,61.0,29.86,SSE,153,1.0,3.0,79,0.00,,,0.00,weatherlink.com 1.10,2013-10-07 03:24:00,
2013-10-06 23:38:00,67.9,62.0,29.87,NW,318,1.0,3.0,80,0.00,,,0.00,weatherlink.com 1.10,2013-10-07 03:38:00,
2013-10-06 23:53:00,67.0,62.0,29.87,ENE,67,1.0,5.0,85,0.01,,,0.01,weatherlink.com 1.10,2013-10-07 03:53:00,